Location: Dameraucourt
(49.7078°N, 1.9278°E)
Time: 22:32:35
(UTC+00:00)

Daily predictions for brighter satellites

Satellite Brightness Start Highest point End
(mag) Time Altitude Azimuth Time Altitude Azimuth Time Altitude Azimuth
Cosmos 2098 Rocket 3.5 16:19:16 10° SSE 16:23:32 53° E 16:28:31 10° NNE
USA 290 2.4 16:22:01 10° NNW 16:25:17 79° WSW 16:28:31 10° SSE
Cosmos 2208 Rocket 4.4 16:20:38 10° NNW 16:25:48 72° WSW 16:30:58 10° SSE
Cosmos 1782 2.5 16:22:54 10° S 16:26:27 65° E 16:30:01 10° NNE
Cosmos 1933 4.4 16:23:51 10° SE 16:26:53 23° E 16:29:57 10° NE
Cosmos 2227 Rocket 2.3 16:23:43 10° NNW 16:29:15 53° NE 16:34:46 10° SE
Meteor 1-28 Rocket 3.6 16:26:57 10° NNE 16:30:04 35° E 16:33:08 10° SSE
Cosmos 2369 Rocket 4.2 16:28:12 10° W 16:32:14 19° NW 16:36:17 10° N
CBERS-1 4.0 16:27:41 10° SSE 16:32:45 69° ENE 16:37:51 10° N
CENTAUR R/B 3.5 16:34:56 10° W 16:40:41 41° NNW 16:47:50 10° NE
Cosmos 1697 Rocket 3.1 16:36:10 10° S 16:41:28 46° ESE 16:46:49 10° NE
Cosmos 1626 Rocket 4.2 16:38:43 10° NNW 16:42:59 60° W 16:47:12 10° S
Cosmos 2360 4.3 16:37:18 10° SSW 16:43:01 89° WNW 16:48:49 10° NNE
CZ-2D R/B 3.8 16:41:59 10° SE 16:44:37 25° ENE 16:47:15 10° N
Cosmos 2266 Rocket 3.9 16:42:41 10° N 16:48:50 69° ENE 16:54:51 10° SSE
Cosmos 1656 4.1 16:45:17 10° SW 16:50:52 63° WNW 16:56:33 10° NNE
Cosmos 2228 4.4 16:47:52 10° SW 16:51:51 39° WNW 16:55:53 10° N
Cosmos 1606 Rocket 4.0 16:48:36 10° SSE 16:52:46 42° E 16:56:58 10° NNE
Cosmos 1503 Rocket 4.0 16:49:46 10° SSW 16:55:00 79° ESE 17:00:13 10° NNE
Lacrosse 5 rocket 2.4 16:53:08 10° WNW 16:56:21 26° N 16:58:50 14° NE
UNK 3.9 16:54:30 10° NNE 16:59:00 52° E 17:03:26 10° S
CZ-4C R/B 3.4 16:52:12 10° NW 16:59:07 69° SW 17:07:41 10° SSE
Cosmos 1484 Rocket 3.3 16:56:25 10° S 16:59:51 55° W 17:03:17 10° NNW
Thor Agena Rocket 3.5 16:55:52 10° SSE 17:01:04 86° ENE 17:06:14 10° NNW
Cosmos 1743 3.4 16:58:08 10° NNW 17:01:17 46° W 17:04:23 10° S
Cosmos 1544 Rocket 4.3 16:57:51 10° SSW 17:02:11 55° WNW 17:06:34 10° N
IRS-P3 4.4 16:58:46 10° SE 17:03:48 45° ENE 17:08:51 10° N
NOSS 2-3 (D) 3.8 17:01:07 10° SSW 17:04:34 38° ESE 17:07:02 17° ENE
NOSS 2-3 (E) 3.7 17:01:44 10° SSW 17:05:12 42° SE 17:07:43 17° ENE
Cosmos 1354 Rocket 4.0 17:00:48 10° SSW 17:06:01 70° ESE 17:11:15 10° NNE
IGS 5A 3.9 17:03:24 10° S 17:07:19 61° WSW 17:11:17 10° NNW
NOSS 2-2 (D) 4.4 17:05:08 10° W 17:07:48 25° NW 17:10:11 11° NNE
Cosmos 1777 Rocket 4.2 17:03:01 10° SSW 17:08:15 72° WNW 17:13:31 10° NNE
Cosmos 2151 3.5 17:05:16 10° NNW 17:09:23 60° W 17:13:29 10° S
Cosmos-2242 4.2 17:06:29 10° SE 17:09:44 22° E 17:11:24 17° NE
USA 238 DEB 4.0 17:04:18 10° S 17:09:56 41° ESE 17:14:48 16° NE
USA 238 4.0 17:04:25 10° S 17:10:03 41° ESE 17:14:54 16° NE
MOS 1 Rocket 3.6 17:05:50 10° SE 17:10:42 54° ENE 17:15:49 10° N
Cosmos 1898 Rocket 4.5 17:09:41 10° SSE 17:13:56 26° E 17:16:31 18° ENE
Gbstr 26 Del rocket 2.9 17:09:58 10° WSW 17:14:05 64° SSE 17:16:29 21° ENE
Cosmos 1726 Rocket 3.8 17:10:46 10° S 17:15:16 53° E 17:19:44 10° NNE
ERS-1 4.4 17:11:51 10° SSE 17:16:47 64° ENE 17:21:42 10° N
USA 215 3.7 17:12:07 15° ENE 17:17:16 48° N 17:23:30 10° WNW
Cosmos 2082 4.0 17:12:18 10° NNW 17:17:45 43° NE 17:23:10 10° ESE
AQUARIUS 4.1 17:13:56 10° SSE 17:18:16 61° ENE 17:22:38 10° N
SMAP 3.2 17:14:56 10° S 17:19:35 79° WSW 17:24:17 10° NNW
Cosmos 1805 3.8 17:17:31 10° NNE 17:20:24 26° ENE 17:23:16 10° SE
Cosmos 2297 Rocket 4.1 17:16:22 10° NW 17:21:23 34° WSW 17:26:23 10° SSW
GEOS 3 Rocket 3.8 17:19:09 16° NE 17:23:23 63° SE 17:28:42 10° SSW
Landsat 7 3.7 17:19:03 10° SSE 17:23:42 90° E 17:28:24 10° NNW
YAOGAN 1 3.2 17:22:50 10° SE 17:26:33 30° ENE 17:30:18 10° N
Cosmos 923 Rocket 4.5 17:22:00 10° N 17:26:49 36° NE 17:31:34 10° ESE
Cosmos 1937 Rocket 4.4 17:25:13 10° SSE 17:29:28 27° E 17:30:51 24° ENE
Okean 1-7 Rocket 4.4 17:26:02 10° NNW 17:30:19 53° W 17:34:33 10° S
SL-16 R/B 4.1 17:28:58 10° ESE 17:29:26 11° ESE 17:29:26 11° ESE
Cosmos 990 Rocket 4.0 17:28:16 10° SSW 17:33:24 84° WNW 17:38:14 12° NNE
Cosmos 1461 3.9 17:30:07 10° WSW 17:33:46 37° NW 17:36:23 17° NNE
CZ-2D R/B 3.8 17:30:41 10° SE 17:34:35 41° ENE 17:38:28 10° N
SL-16 R/B 3.3 17:29:01 10° N 17:35:01 52° WNW 17:40:59 10° SW
SKYMED 2 4.0 17:35:14 24° NE 17:37:15 38° E 17:41:18 10° SSE
COSMOS 2455 4.0 17:33:36 10° SSE 17:38:02 22° ESE 17:38:36 21° E
Okean 1 4.0 17:35:44 10° SSE 17:38:21 29° ESE 17:38:21 29° ESE
Cosmos 1844 Rocket 3.4 17:39:42 10° NNW 17:44:42 31° NE 17:45:49 29° ENE
SJ-6F 4.3 17:40:58 10° SSE 17:44:57 85° WSW 17:49:01 10° NNW
Cosmos 2219 3.1 17:39:15 10° NNW 17:45:01 76° ENE 17:50:46 10° SE
Cosmos 1980 Rocket 2.2 17:40:11 10° SSW 17:45:46 66° ESE 17:49:21 23° NE
Cosmos 1953 Rocket 3.6 17:42:51 10° NNW 17:47:19 82° W 17:51:46 10° S
Aureole 1 Rocket 3.4 17:43:09 10° S 17:47:44 67° ESE 17:51:47 20° NNE
Meteor 1-26 Rocket 4.2 17:43:52 10° S 17:49:02 51° E 17:52:48 18° NNE
PSLV R/B 3.7 17:49:59 38° E 17:50:41 42° ENE 17:54:33 10° N
ARIANE 5 R/B 3.3 17:47:46 10° S 17:52:45 55° W 17:57:49 10° NNW
Cosmos 2263 Rocket 2.5 17:47:31 10° NNW 17:53:10 70° WSW 17:58:48 10° SSE
SL-19 R/B 4.3 17:48:21 10° SE 17:53:38 54° ENE 17:59:15 10° N
BREEZE-M DEB (TANK) 3.7 17:54:06 10° SW 17:57:13 25° SSE 17:57:13 25° SSE
Cosmos 1680 Rocket 3.7 17:53:31 10° NNW 17:58:34 47° ENE 18:00:24 33° ESE
COSMO-SKYMED 1 3.0 17:59:08 39° ESE 17:59:08 39° ESE 18:02:28 10° S
BREEZE-M DEB (TANK) 3.9 17:55:46 10° W 17:59:20 76° SSW 18:06:53 19° ESE
NOSS 3-2 (C) 4.0 17:54:25 10° WSW 17:59:31 46° NNW 18:03:20 21° NNE
NOAA 15 4.5 17:55:42 10° SSE 18:00:58 72° ENE 18:06:15 10° N
Cosmos 1076 Rocket 4.3 17:57:43 10° NNW 18:01:55 52° W 18:06:06 10° S
Meteor 2-10 4.2 17:56:45 10° NNW 18:02:11 83° W 18:07:45 10° S
NOAA 6 4.1 17:58:02 10° SE 18:02:58 51° ENE 18:07:53 10° N
Cosmos 2369 3.8 17:57:55 10° S 18:03:28 53° ESE 18:05:20 38° ENE
Resurs 01 Rocket 4.0 18:11:52 10° N 18:11:52 10° N 18:11:55 10° N
USA 81 4.2 18:06:03 10° N 18:11:20 77° W 18:16:35 10° S
Cosmos 44 Rocket 3.7 18:06:49 10° NNW 18:11:44 45° NE 18:11:53 45° NE
Cosmos 2227 Rocket 4.1 18:08:10 10° NW 18:13:01 30° WSW 18:17:51 10° SSW
SPOT 1/Viking Rocket 3.8 18:11:37 10° S 18:16:47 69° WSW 18:22:00 10° NNW
Cosmos 2058 Rocket 3.4 18:19:36 10° SSW 18:24:03 66° WNW 18:26:26 27° N
Cosmos 1697 Rocket 3.9 18:20:23 10° WSW 18:25:33 37° NW 18:29:16 18° N
OceanSat 1 rocket 4.4 18:21:39 10° SSE 18:26:23 85° ENE 18:31:08 10° NNW
CENTAUR R/B 4.1 18:27:26 10° WNW 18:33:20 29° N 18:35:36 25° NNE
Cosmos 2333 Rocket 4.2 18:28:31 10° SSE 18:29:34 15° SSE 18:29:34 15° SSE
Lacrosse 5 rocket 3.0 18:30:45 10° NW 18:32:26 21° NNW 18:32:26 21° NNW
Cosmos 2278 Rocket 4.5 18:32:26 10° N 18:32:43 10° N 18:32:43 10° N
Meteor 2-11 Rocket 4.3 18:28:04 10° N 18:34:17 87° E 18:40:26 10° S
NOSS 2-3 (C) 4.3 18:31:57 10° WSW 18:34:52 38° NW 18:34:52 38° NW
Meteor 1-14 Rocket 4.1 18:32:42 10° N 18:38:30 73° ENE 18:39:10 65° SE
Resurs 1-3 4.4 18:39:31 10° S 18:43:42 50° W 18:47:55 10° NNW
Cosmos-2242 4.1 18:42:29 10° SW 18:46:30 41° WNW 18:47:46 32° NNW
Cosmos 1898 Rocket 4.2 18:50:37 10° SW 18:55:38 50° WNW 18:56:45 42° NNW
Cosmos 1844 4.0 18:50:13 10° NNW 18:54:37 55° N 18:54:37 55° N
USA 215 3.4 18:59:28 55° NNE 18:59:42 55° NNE 19:06:04 10° WNW
Cosmos 2112 Rocket 4.2 18:55:06 10° NNW 18:59:47 66° WNW 18:59:47 66° WNW
USA 238 DEB 4.0 18:54:33 10° WSW 19:00:40 56° NW 19:02:15 45° N
USA 238 4.0 18:54:38 10° WSW 19:00:46 56° NW 19:02:21 46° N
Cosmos 1553 Rocket 4.4 18:54:51 10° SSW 19:00:57 60° WNW 19:07:12 10° N
YAOGAN 1 4.2 18:58:33 10° SSW 19:02:21 32° W 19:06:13 10° NNW
BREEZE-M DEB (TANK) 4.0 19:01:29 10° SW 19:06:16 42° SSW 19:06:16 42° SSW
Cosmos 1937 Rocket 4.2 19:06:03 10° SW 19:10:58 50° WNW 19:10:58 50° WNW
Meteor 2-6 Rocket 4.5 19:05:41 10° SSW 19:11:21 67° WNW 19:11:38 66° WNW
SL-16 R/B 3.6 19:08:42 10° SSW 19:11:20 29° SSW 19:11:20 29° SSW
Cosmos 1745 Rocket 4.2 19:10:11 10° NNW 19:16:18 66° W 19:22:21 10° S
COSMOS 2455 3.4 19:17:14 10° SW 19:21:46 53° SW 19:21:46 53° SW
Cosmos 1844 Rocket 3.6 19:23:22 10° NW 19:27:31 45° WNW 19:27:31 45° WNW
Cosmos 1980 Rocket 3.8 19:25:24 10° WSW 19:30:13 28° NW 19:31:07 27° NNW
CENTAUR R/B 4.4 20:18:59 10° NW 20:22:41 28° NNW 20:22:41 28° NNW
